GW4575 Weather Reports


Display with metric or nautical units.
time (UTC)temp
F
wind
direction
speed
MPH
gust
MPH
rain 1hr
in
rain 24hr
in
rain mn
in
humidity
%
barometer
mb
20260504025519 50 283 0.0 0.0 0.00 0.00 0.00 37 1003.6
20260504025015 50 232 0.0 0.0 0.00 0.00 0.00 37 1003.5
20260504024512 51 303 0.0 0.0 0.00 0.00 0.00 38 1003.6
20260504024009 51 257 0.0 1.0 0.00 0.00 0.00 36 1003.7
20260504023506 51 241 0.0 0.0 0.00 0.00 0.00 36 1003.7
20260504023001 51 220 1.0 1.0 0.00 0.00 0.00 35 1003.6
20260504022457 51 222 0.0 0.0 0.00 0.00 0.00 37 1003.7
20260504021954 51 234 0.0 0.0 0.00 0.00 0.00 36 1003.7
20260504021452 51 271 0.0 0.0 0.00 0.00 0.00 37 1003.8
20260504020949 51 262 0.0 1.0 0.00 0.00 0.00 37 1003.8
20260504020445 51 226 0.0 0.0 0.00 0.00 0.00 37 1003.9
20260504015942 51 238 0.0 0.0 0.00 0.00 0.00 37 1003.7
20260504015438 51 251 0.0 0.0 0.00 0.00 0.00 38 1003.7
20260504014934 51 292 0.0 1.0 0.00 0.00 0.00 37 1003.9
20260504014430 51 260 0.0 0.0 0.00 0.00 0.00 37 1003.8
20260504013927 51 224 0.0 1.0 0.00 0.00 0.00 37 1003.9
20260504013426 52 245 0.0 0.0 0.00 0.00 0.00 36 1003.9
20260504012926 51 23 0.0 2.0 0.00 0.00 0.00 38 1004.0
20260504012425 51 269 0.0 1.0 0.00 0.00 0.00 36 1004.2
20260504011922 52 276 0.0 1.0 0.00 0.00 0.00 36 1004.1
20260504011419 52 252 0.0 0.0 0.00 0.00 0.00 36 1003.9
20260504010914 53 274 0.0 3.0 0.00 0.00 0.00 37 1004.2
20260504010411 53 271 1.0 4.0 0.00 0.00 0.00 35 1004.3
20260504005907 54 271 0.0 2.0 0.00 0.00 0.00 36 1004.2
20260504005403 54 266 1.0 2.0 0.00 0.00 0.00 34 1004.2
20260504004901 55 260 2.0 3.0 0.00 0.00 0.00 34 1004.2
20260504004359 55 302 2.0 2.0 0.00 0.00 0.00 35 1004.4
20260504003855 55 230 2.0 4.0 0.00 0.00 0.00 34 1004.1
20260504003352 55 282 1.0 4.0 0.00 0.00 0.00 33 1004.1
20260504002848 56 293 3.0 7.0 0.00 0.00 0.00 32 1004.2
20260504002345 57 288 4.0 6.0 0.00 0.00 0.00 31 1004.2
20260504001843 57 257 3.0 6.0 0.00 0.00 0.00 32 1004.5
20260504001340 57 306 2.0 8.0 0.00 0.00 0.00 32 1004.4
20260504000837 57 313 3.0 4.0 0.00 0.00 0.00 32 1004.6
20260504000334 58 314 3.0 4.0 0.00 0.00 0.00 33 1004.3
20260503235831 58 280 4.0 7.0 0.00 0.00 0.00 31 1004.4
20260503235329 58 258 4.0 7.0 0.00 0.00 0.00 31 1004.6
20260503234826 58 305 6.0 13.0 0.00 0.00 0.00 30 1004.5
20260503234324 59 271 6.0 9.0 0.00 0.00 0.00 31 1004.6
20260503233821 59 288 3.0 9.0 0.00 0.00 0.00 32 1004.4
20260503233317 59 276 4.0 10.0 0.00 0.00 0.00 30 1004.3
20260503232814 59 255 3.0 7.0 0.00 0.00 0.00 30 1004.2
20260503232311 59 255 2.0 9.0 0.00 0.00 0.00 32 1004.3
20260503231809 59 256 5.0 10.0 0.00 0.00 0.00 30 1004.2
20260503231306 60 259 8.0 10.0 0.00 0.00 0.00 29 1004.4
20260503230802 60 263 4.0 6.0 0.00 0.00 0.00 32 1004.3
20260503230259 59 277 7.0 10.0 0.00 0.00 0.00 30 1004.4
20260503225757 59 319 4.0 8.0 0.00 0.00 0.00 32 1004.4
20260503225252 59 284 3.0 10.0 0.00 0.00 0.00 33 1004.4
20260503224749 58 274 8.0 11.0 0.00 0.00 0.00 33 1004.5
20260503224246 57 287 4.0 10.0 0.00 0.00 0.00 34 1004.5
20260503223744 56 272 2.0 14.0 0.00 0.00 0.00 36 1004.4
20260503223241 57 320 5.0 13.0 0.00 0.00 0.00 35 1004.4
20260503222737 57 283 5.0 7.0 0.00 0.00 0.00 35 1004.4
20260503222235 58 329 2.0 4.0 0.00 0.00 0.00 36 1004.5
20260503221734 59 272 6.0 13.0 0.00 0.00 0.00 33 1004.5
20260503221231 59 295 3.0 7.0 0.00 0.00 0.00 34 1004.4
20260503220727 60 331 5.0 11.0 0.00 0.00 0.00 34 1004.3
20260503220224 58 251 6.0 8.0 0.00 0.00 0.00 34 1004.4
20260503215721 60 325 5.0 10.0 0.00 0.00 0.00 35 1004.3
20260503215218 58 266 4.0 9.0 0.00 0.00 0.00 36 1004.2
20260503214716 58 281 8.0 13.0 0.00 0.00 0.00 36 1004.2
20260503214212 58 262 3.0 8.0 0.00 0.00 0.00 35 1004.2
20260503213711 57 303 7.0 10.0 0.00 0.00 0.00 35 1004.3
20260503213207 57 297 6.0 14.0 0.00 0.00 0.00 36 1004.3
20260503212704 59 278 5.0 9.0 0.00 0.00 0.00 36 1004.3
20260503212202 59 275 5.0 11.0 0.00 0.00 0.00 40 1004.2
20260503211700 59 286 3.0 11.0 0.00 0.00 0.00 41 1004.2
20260503211155 59 248 6.0 9.0 0.00 0.00 0.00 41 1004.3
20260503210651 59 255 6.0 14.0 0.00 0.00 0.00 43 1004.2
20260503210148 59 323 5.0 11.0 0.00 0.00 0.00 46 1004.3
20260503205644 59 284 10.0 13.0 0.00 0.00 0.00 44 1004.2
20260503205140 60 273 5.0 15.0 0.00 0.00 0.00 44 1004.1
20260503204637 60 322 3.0 9.0 0.00 0.00 0.00 49 1004.3
20260503204135 60 279 7.0 14.0 0.00 0.00 0.00 47 1004.2
20260503203631 60 263 9.0 15.0 0.00 0.00 0.00 48 1004.1
20260503203129 60 293 6.0 9.0 0.00 0.00 0.00 50 1004.3
20260503202626 59 243 5.0 14.0 0.00 0.00 0.00 53 1004.2
20260503202124 59 339 8.0 14.0 0.00 0.00 0.00 54 1004.3
20260503201622 60 267 4.0 9.0 0.00 0.00 0.00 54 1004.2
20260503201119 59 255 6.0 9.0 0.00 0.00 0.00 55 1004.2
20260503200615 60 270 8.0 10.0 0.00 0.00 0.00 53 1004.1
20260503200112 60 320 8.0 16.0 0.00 0.00 0.00 54 1004.3
20260503195609 60 286 5.0 14.0 0.00 0.00 0.00 55 1004.1
20260503195106 61 307 10.0 11.0 0.00 0.00 0.00 54 1004.0
20260503194603 59 319 4.0 11.0 0.00 0.00 0.00 55 1004.0
20260503194058 60 265 6.0 10.0 0.00 0.00 0.00 54 1004.1
20260503193555 59 240 3.0 9.0 0.00 0.00 0.00 55 1004.3
20260503193050 60 292 7.0 15.0 0.00 0.00 0.00 56 1004.3
20260503192546 60 287 8.0 15.0 0.00 0.00 0.00 54 1004.2
20260503192042 60 279 6.0 13.0 0.00 0.00 0.00 55 1004.4
20260503191539 60 247 8.0 14.0 0.00 0.00 0.00 54 1004.2
20260503191036 60 352 3.0 13.0 0.00 0.00 0.00 57 1004.2
20260503190533 60 311 6.0 15.0 0.00 0.00 0.00 53 1004.4
20260503190030 61 288 9.0 11.0 0.00 0.00 0.00 53 1004.5
20260503185527 59 282 7.0 14.0 0.00 0.00 0.00 55 1004.4
20260503185026 60 261 6.0 10.0 0.00 0.00 0.00 53 1004.4
20260503184523 60 275 7.0 14.0 0.00 0.00 0.00 55 1004.6
20260503184019 61 269 4.0 15.0 0.00 0.00 0.00 54 1004.6
20260503183516 59 294 9.0 16.0 0.00 0.00 0.00 55 1004.8
20260503183013 61 289 9.0 10.0 0.00 0.00 0.00 53 1004.5
20260503182512 60 269 5.0 8.0 0.00 0.00 0.00 55 1004.4
20260503182009 60 287 3.0 9.0 0.00 0.00 0.00 56 1004.5
20260503181506 60 280 6.0 9.0 0.00 0.00 0.00 54 1004.6
20260503181002 60 289 6.0 10.0 0.00 0.00 0.00 54 1004.6
20260503180500 60 344 4.0 6.0 0.00 0.00 0.00 56 1004.5
20260503175956 61 299 5.0 10.0 0.00 0.00 0.00 55 1004.6
20260503175455 59 278 4.0 9.0 0.00 0.00 0.00 58 1004.9
20260503174950 60 265 9.0 11.0 0.00 0.00 0.00 53 1004.9
20260503174448 60 318 9.0 13.0 0.00 0.00 0.00 54 1005.0
20260503173943 61 266 8.0 11.0 0.00 0.00 0.00 53 1004.8
20260503173439 61 283 3.0 8.0 0.00 0.00 0.00 56 1004.8
20260503172936 61 267 6.0 9.0 0.00 0.00 0.00 54 1005.0
20260503172434 60 263 3.0 6.0 0.00 0.00 0.00 57 1004.9
20260503171930 60 284 7.0 9.0 0.00 0.00 0.00 55 1005.0
20260503171427 59 273 5.0 14.0 0.00 0.00 0.00 57 1004.8
20260503170925 59 303 6.0 11.0 0.00 0.00 0.00 57 1005.0
20260503170420 58 295 6.0 16.0 0.00 0.00 0.00 57 1005.0
20260503150813 58 211 2.0 9.0 0.00 0.00 0.00 60 1005.2
20260503150309 57 277 2.0 10.0 0.00 0.00 0.00 62 1005.2
20260503140233 56 346 4.0 7.0 0.00 0.00 0.00 62 1005.7
20260503131203 53 301 4.0 4.0 0.00 0.00 0.00 65 1006.3
20260503130700 53 277 2.0 4.0 0.00 0.00 0.00 65 1006.3
20260503130158 53 236 2.0 3.0 0.00 0.00 0.00 66 1006.2
20260503120123 47 256 0.0 1.0 0.00 0.00 0.00 73 1006.6
20260503110550 42 222 0.0 2.0 0.00 0.00 0.00 71 1007.0
20260503090437 42 200 2.0 6.0 0.00 0.00 0.00 64 1007.7
20260503081404 43 205 3.0 11.0 0.00 0.00 0.00 58 1008.3
20260503080901 43 159 2.0 4.0 0.00 0.00 0.00 57 1008.3
20260503080358 43 189 3.0 7.0 0.00 0.00 0.00 57 1008.4
20260503072834 44 188 3.0 6.0 0.00 0.00 0.00 55 1008.8
20260503072331 44 181 4.0 7.0 0.00 0.00 0.00 54 1008.9
20260503071827 44 183 4.0 8.0 0.00 0.00 0.00 55 1008.9
20260503071325 44 93 3.0 8.0 0.00 0.00 0.00 54 1009.0
20260503070821 44 97 4.0 4.0 0.00 0.00 0.00 54 1009.0
20260503070314 44 202 1.0 4.0 0.00 0.00 0.00 54 1008.8
20260503060232 44 142 3.0 4.0 0.00 0.00 0.00 51 1009.8
20260503054719 44 126 4.0 7.0 0.00 0.00 0.00 50 1010.2
20260503054216 44 157 5.0 10.0 0.00 0.00 0.00 50 1010.0
20260503053715 44 223 2.0 3.0 0.00 0.00 0.00 50 1010.3
20260503053213 45 171 1.0 7.0 0.00 0.00 0.00 50 1010.1
20260503052709 44 153 4.0 7.0 0.00 0.00 0.00 50 1010.0
20260503052206 44 174 4.0 7.0 0.00 0.00 0.00 50 1010.1
20260503051701 44 57 3.0 8.0 0.00 0.00 0.00 50 1010.2
20260503051159 44 175 2.0 6.0 0.00 0.00 0.00 50 1010.4
20260503050655 45 110 3.0 4.0 0.00 0.00 0.00 50 1010.5
20260503050151 45 17 2.0 4.0 0.00 0.00 0.00 50 1010.7
20260503045649 44 170 3.0 4.0 0.00 0.00 0.00 50 1010.7
20260503045146 45 201 1.0 4.0 0.00 0.00 0.00 50 1010.6
20260503044642 45 214 5.0 10.0 0.00 0.00 0.00 48 1010.6
20260503044140 44 201 2.0 3.0 0.00 0.00 0.00 51 1010.9
20260503043636 44 222 2.0 6.0 0.00 0.00 0.00 51 1011.1
20260503043133 44 207 2.0 4.0 0.00 0.00 0.00 51 1011.1
20260503042630 44 199 3.0 7.0 0.00 0.00 0.00 50 1011.0
20260503042126 43 126 6.0 8.0 0.00 0.00 0.00 52 1010.9
20260503041623 43 240 1.0 4.0 0.00 0.00 0.00 53 1010.9
20260503041121 43 174 4.0 7.0 0.00 0.00 0.00 53 1010.7
20260503040618 43 149 5.0 8.0 0.00 0.00 0.00 53 1010.9
20260503040115 43 93 4.0 6.0 0.00 0.00 0.00 53 1011.1
20260503035611 43 236 3.0 7.0 0.00 0.00 0.00 53 1010.9
20260503035109 42 132 4.0 6.0 0.00 0.00 0.00 53 1011.3
20260503034606 43 204 3.0 8.0 0.00 0.00 0.00 52 1011.1
20260503034103 43 173 2.0 7.0 0.00 0.00 0.00 51 1011.1
20260503033600 43 285 4.0 9.0 0.00 0.00 0.00 51 1011.2
20260503033058 43 214 2.0 9.0 0.00 0.00 0.00 51 1011.4
20260503032556 43 235 5.0 8.0 0.00 0.00 0.00 50 1011.4
20260503032054 44 140 6.0 10.0 0.00 0.00 0.00 50 1011.6
20260503031552 44 100 4.0 9.0 0.00 0.00 0.00 50 1011.7
20260503031049 44 224 2.0 8.0 0.00 0.00 0.00 50 1011.9
20260503030544 44 190 4.0 8.0 0.00 0.00 0.00 50 1011.9
20260503030042 44 189 2.0 8.0 0.00 0.00 0.00 49 1011.9